Terminal Aerodrome Forecast
Issued by NWS

Home | Current Version | Previous Version | Text Only | Print | Product List | Glossary On
Versions: 1 2 3 4 5 6 7 8 9 10 11 12
000
FTUS45 KVEF 262300
TAFEED
TAF
KEED 262328Z 2700/2724 07007KT P6SM SKC
     FM270300 36012KT P6SM SKC
     FM270500 31005KT P6SM SKC
     FM271700 02007KT P6SM SKC=

USA.gov is the U.S. government's official web portal to all federal, state and local government web resources and services.